EW2546 Weather Reports


time (UTC)temp
C
wind
direction
speed
KPH
gust
KPH
rain 1hr
cm
rain 24hr
cm
rain mn
cm
humidity
%
barometer
mb
20260507085525 7 0 0.0 0.0 0.00 1.19 0.23 94 1006.1
20260507085027 7 0 0.0 0.0 0.00 1.19 0.23 94 1006.4
20260507084545 7 0 0.0 0.0 0.00 1.19 0.23 94 1006.6
20260507084026 7 0 0.0 0.0 0.00 1.19 0.23 94 1006.2
20260507083525 7 0 0.0 1.6 0.00 1.19 0.23 94 1006.2
20260507083051 7 0 0.0 1.6 0.00 1.19 0.23 94 1006.3
20260507082526 7 0 0.0 1.6 0.00 1.19 0.23 94 1006.1
20260507082025 7 0 0.0 1.6 0.00 1.19 0.23 94 1006.4
20260507081537 7 0 0.0 1.6 0.00 1.19 0.23 94 1006.2
20260507081027 7 0 0.0 0.0 0.00 1.19 0.23 94 1006.0
20260507080527 7 0 0.0 0.0 0.00 1.19 0.23 94 1006.0
20260507080050 7 0 0.0 6.4 0.00 1.19 0.23 94 1005.9
20260507075528 7 0 0.0 6.4 0.00 1.19 0.23 93 1006.1
20260507075026 7 0 0.0 6.4 0.00 1.19 0.23 94 1005.7
20260507074541 8 0 0.0 6.4 0.00 1.19 0.23 94 1006.0
20260507074025 8 0 0.0 6.4 0.00 1.19 0.23 95 1005.8
20260507073529 8 0 0.0 1.6 0.00 1.19 0.23 95 1005.8
20260507073049 8 0 0.0 1.6 0.00 1.19 0.23 95 1006.0
20260507072525 8 0 0.0 0.0 0.00 1.19 0.23 95 1005.8
20260507072025 8 0 0.0 0.0 0.00 1.19 0.23 95 1005.9
20260507071537 8 0 0.0 0.0 0.00 1.19 0.23 94 1005.9
20260507071025 8 0 0.0 0.0 0.00 1.19 0.23 95 1005.6
20260507070527 8 0 0.0 0.0 0.00 1.19 0.23 95 1005.6
20260507070043 8 0 0.0 0.0 0.00 1.19 0.23 95 1005.5
20260507065525 8 0 0.0 0.0 0.00 1.19 0.23 95 1005.4
20260507065025 8 0 0.0 0.0 0.00 1.19 0.23 95 1005.4
20260507064541 8 0 0.0 0.0 0.00 1.19 0.23 94 1005.5
20260507064026 8 0 0.0 0.0 0.00 1.19 0.23 94 1005.4
20260507063529 8 0 0.0 0.0 0.00 1.19 0.23 94 1005.3
20260507063046 9 0 0.0 0.0 0.00 1.19 0.23 94 1005.1
20260507062525 9 0 0.0 0.0 0.00 1.19 0.23 94 1005.1
20260507062025 9 0 0.0 0.0 0.00 1.19 0.23 95 1004.9
20260507061539 9 0 0.0 0.0 0.03 1.19 0.23 95 1005.0
20260507061028 9 0 0.0 0.0 0.03 1.19 0.23 95 1005.1
20260507060527 9 0 0.0 0.0 0.03 1.19 0.23 95 1005.2
20260507060036 9 0 0.0 0.0 0.03 1.19 0.23 94 1005.2
20260507055525 9 0 0.0 0.0 0.03 1.19 0.23 94 1005.1
20260507055026 9 0 0.0 0.0 0.03 1.19 0.23 94 1005.0
20260507054540 9 0 0.0 0.0 0.03 1.19 0.23 94 1005.0
20260507054025 9 0 0.0 0.0 0.03 1.19 0.23 94 1004.9
20260507053526 9 0 0.0 6.4 0.03 1.19 0.23 94 1004.9
20260507053037 10 0 0.0 8.0 0.05 1.19 0.23 94 1005.0
20260507052525 10 359 0.0 8.0 0.08 1.19 0.23 94 1004.9
20260507052026 10 301 0.0 3.2 0.13 1.19 0.23 95 1004.9
20260507051542 10 0 0.0 0.0 0.18 1.17 0.20 95 1005.0
20260507051025 10 0 0.0 11.3 0.20 1.17 0.20 95 1004.9
20260507050528 10 0 0.0 11.3 0.20 1.17 0.20 94 1004.9
20260507050040 10 0 1.6 11.3 0.20 1.17 0.20 94 1004.8
20260507045525 10 0 0.0 8.0 0.20 1.17 0.20 95 1004.9
20260507045026 11 0 0.0 9.7 0.20 1.17 0.20 95 1004.9
20260507044540 11 264 0.0 9.7 0.23 1.17 0.20 95 1004.9
20260507044025 11 0 0.0 8.0 0.23 1.17 0.20 95 1004.8
20260507043525 11 0 0.0 11.3 0.25 1.17 0.20 95 1004.8
20260507043038 11 0 0.0 12.9 0.23 1.14 0.18 95 1004.8
20260507042524 11 315 1.6 12.9 0.20 1.12 0.15 95 1004.8
20260507042025 11 305 6.4 12.9 0.13 1.04 0.08 95 1005.0
20260507041547 11 301 3.2 12.9 0.08 0.99 0.03 95 1005.2
20260507041025 11 0 0.0 3.2 0.05 0.97 0.00 95 1004.8
20260507040525 11 0 0.0 0.0 0.05 0.97 0.00 95 1004.4
20260507040041 11 0 0.0 0.0 0.05 0.97 0.00 95 1004.3
20260507035525 11 0 0.0 0.0 0.05 0.97 0.97 95 1004.2
20260507035026 11 0 0.0 0.0 0.05 0.97 0.97 95 1004.3
20260507034539 11 0 0.0 0.0 0.03 0.94 0.94 95 1004.2
20260507034025 11 0 0.0 6.4 0.03 0.94 0.94 95 1004.2
20260507033525 11 0 0.0 6.4 0.00 0.91 0.91 95 1004.3
20260507033039 11 0 0.0 0.0 0.00 0.91 0.91 95 1004.3
20260507032528 11 0 0.0 0.0 0.00 0.91 0.91 95 1003.8
20260507032025 11 0 0.0 0.0 0.00 0.91 0.91 95 1003.9
20260507031537 11 0 0.0 0.0 0.00 0.91 0.91 95 1003.8
20260507031028 11 0 0.0 0.0 0.00 0.91 0.91 95 1003.9
20260507030525 11 0 0.0 4.8 0.00 0.91 0.91 95 1003.7
20260507030036 11 0 0.0 4.8 0.00 0.91 0.91 95 1003.7
20260507025525 11 0 0.0 4.8 0.00 0.91 0.91 95 1003.8
20260507025025 11 0 0.0 4.8 0.00 0.91 0.91 95 1003.9
20260507024544 11 0 0.0 4.8 0.00 0.91 0.91 95 1003.9
20260507024024 11 0 0.0 6.4 0.03 0.91 0.91 95 1004.0
20260507023536 11 0 0.0 6.4 0.03 0.91 0.91 95 1004.0
20260507023042 11 0 0.0 4.8 0.05 0.91 0.91 95 1004.0
20260507022529 11 0 0.0 1.6 0.05 0.91 0.91 95 1004.0
20260507022026 11 0 0.0 4.8 0.05 0.91 0.91 95 1004.2
20260507021537 11 0 0.0 4.8 0.05 0.91 0.91 95 1004.2
20260507021028 11 0 0.0 6.4 0.05 0.91 0.91 94 1004.3
20260507020526 11 0 0.0 6.4 0.08 0.91 0.91 94 1004.2
20260507020055 11 0 0.0 4.8 0.08 0.91 0.91 94 1004.2
20260507015524 11 0 0.0 11.3 0.08 0.91 0.91 94 1004.3
20260507015024 11 0 1.6 11.3 0.08 0.91 0.91 94 1004.4
20260507014544 11 0 0.0 4.8 0.08 0.91 0.91 94 1004.5
20260507014026 11 0 0.0 6.4 0.05 0.89 0.89 94 1004.5
20260507013525 11 0 0.0 11.3 0.05 0.89 0.89 94 1004.5
20260507013037 11 0 0.0 12.9 0.03 0.86 0.86 94 1004.6
20260507012525 11 0 0.0 14.5 0.03 0.86 0.86 94 1004.6
20260507012025 11 0 0.0 14.5 0.03 0.86 0.86 95 1004.7
20260507011536 11 0 0.0 11.3 0.03 0.86 0.86 94 1004.7
20260507011024 11 199 0.0 11.3 0.03 0.86 0.86 94 1004.6
20260507010526 11 0 0.0 11.3 0.00 0.84 0.84 94 1004.7
20260507010042 11 0 0.0 12.9 0.00 0.84 0.84 94 1004.7
20260507005528 11 147 1.6 12.9 0.00 0.84 0.84 94 1004.7
20260507005024 11 0 0.0 12.9 0.00 0.84 0.84 94 1004.7
20260507004543 11 0 0.0 12.9 0.00 0.84 0.84 94 1004.9
20260507004026 11 180 3.2 12.9 0.00 0.84 0.84 94 1004.8
20260507003532 11 215 1.6 12.9 0.00 0.84 0.84 94 1004.8
20260506214024 11 171 1.6 11.3 0.20 0.81 0.81 94 1005.8
20260506213525 11 243 1.6 12.9 0.23 0.81 0.81 94 1005.8
20260506213101 11 0 1.6 12.9 0.23 0.81 0.81 93 1005.9
20260506212525 11 0 1.6 14.5 0.20 0.79 0.79 94 1006.0
20260506212025 12 169 1.6 14.5 0.20 0.79 0.79 94 1005.9
20260506211601 12 0 6.4 14.5 0.20 0.79 0.79 94 1006.0
20260506211025 12 0 1.6 9.7 0.20 0.76 0.76 94 1006.0
20260506210525 12 0 1.6 11.3 0.18 0.71 0.71 94 1006.0
20260506210041 12 0 0.0 11.3 0.18 0.69 0.69 94 1006.0
20260506205524 12 0 0.0 8.0 0.18 0.66 0.66 93 1006.1
20260506205024 12 0 1.6 8.0 0.18 0.64 0.64 93 1006.0
20260506204546 12 141 0.0 8.0 0.20 0.61 0.61 93 1006.1
20260506204025 12 0 0.0 14.5 0.20 0.61 0.61 93 1006.1
20260506203524 12 205 0.0 14.5 0.18 0.58 0.58 93 1006.1
20260506203045 12 0 1.6 14.5 0.20 0.58 0.58 93 1006.0
20260506202525 12 0 0.0 9.7 0.23 0.58 0.58 94 1006.4
20260506202024 12 0 0.0 9.7 0.33 0.58 0.58 93 1006.2
20260506201550 12 0 0.0 9.7 0.43 0.58 0.58 93 1006.1
20260506201026 12 202 0.0 8.0 0.43 0.56 0.56 93 1006.2
20260506200524 12 0 0.0 9.7 0.43 0.53 0.53 93 1006.3
20260506200036 12 0 0.0 9.7 0.43 0.51 0.51 93 1006.5
20260506195525 12 0 0.0 9.7 0.41 0.48 0.48 93 1006.6
20260506195025 12 0 0.0 4.8 0.38 0.43 0.43 93 1006.7
20260506194546 12 160 0.0 4.8 0.38 0.41 0.41 93 1006.7
20260506194026 12 0 0.0 4.8 0.41 0.41 0.41 93 1006.5
20260506193524 11 0 0.0 6.4 0.41 0.41 0.41 93 1006.5
20260506193040 12 0 0.0 6.4 0.38 0.38 0.38 92 1006.7
20260506192526 12 0 0.0 4.8 0.33 0.33 0.33 92 1006.9
20260506192024 12 0 0.0 1.6 0.23 0.23 0.23 92 1007.2
20260506191545 12 0 0.0 4.8 0.15 0.15 0.15 91 1007.3
20260506191029 12 0 0.0 4.8 0.10 0.10 0.10 91 1007.2
20260506190529 12 0 0.0 4.8 0.10 0.10 0.10 91 1006.8
20260506190037 12 0 0.0 4.8 0.08 0.08 0.08 90 1006.9
20260506185528 12 0 0.0 9.7 0.08 0.08 0.08 89 1006.9
20260506185024 12 0 0.0 11.3 0.05 0.05 0.05 89 1006.9
20260506184536 12 172 1.6 11.3 0.03 0.03 0.03 87 1006.8
20260506184025 12 164 0.0 12.9 0.00 0.00 0.00 86 1006.8
20260506183527 12 0 3.2 19.3 0.00 0.00 0.00 84 1006.8
20260506183056 13 159 0.0 20.9 0.00 0.00 0.00 82 1006.7
20260506182524 13 151 4.8 20.9 0.00 0.00 0.00 82 1006.8
20260506182024 13 0 1.6 16.1 0.00 0.00 0.00 81 1006.8
20260506181539 13 222 3.2 16.1 0.00 0.00 0.00 80 1006.8
20260506181025 13 0 0.0 16.1 0.00 0.00 0.00 80 1006.9
20260506180528 13 191 1.6 16.1 0.00 0.00 0.00 80 1006.8
20260506180044 13 142 0.0 9.7 0.00 0.00 0.00 80 1006.7
20260506175525 13 0 0.0 9.7 0.00 0.00 0.00 79 1006.7
20260506175024 14 0 1.6 9.7 0.00 0.00 0.00 80 1006.9
20260506174542 14 151 0.0 9.7 0.00 0.00 0.00 80 1007.0
20260506174024 14 0 0.0 12.9 0.00 0.00 0.00 79 1007.0
20260506173524 14 0 3.2 12.9 0.00 0.00 0.00 79 1007.1
20260506173038 14 0 0.0 12.9 0.00 0.00 0.00 79 1007.3
20260506172523 14 0 0.0 12.9 0.00 0.00 0.00 78 1007.3
20260506172023 15 0 0.0 9.7 0.00 0.00 0.00 78 1007.4
20260506171539 15 173 0.0 9.7 0.00 0.00 0.00 78 1007.5
20260506171028 15 0 0.0 14.5 0.00 0.00 0.00 78 1007.6
20260506170526 15 0 0.0 14.5 0.00 0.00 0.00 78 1007.7
20260506165526 15 173 0.0 9.7 0.00 0.00 0.00 77 1007.7
20260506165026 15 0 1.6 9.7 0.00 0.00 0.00 78 1007.8
20260506164539 15 174 0.0 11.3 0.00 0.00 0.00 77 1008.0
20260506164027 15 174 1.6 12.9 0.00 0.00 0.00 78 1008.0
20260506163525 15 0 0.0 12.9 0.00 0.00 0.00 78 1008.2
20260506163044 15 229 3.2 12.9 0.00 0.00 0.00 78 1008.2
20260506162526 15 0 0.0 12.9 0.00 0.00 0.00 78 1008.4
20260506162028 15 148 0.0 12.9 0.00 0.00 0.00 78 1008.5
20260506161541 15 142 0.0 11.3 0.00 0.00 0.00 79 1008.6
20260506161023 15 0 0.0 9.7 0.00 0.00 0.00 79 1008.5
20260506160525 15 0 0.0 9.7 0.00 0.00 0.00 79 1008.8
20260506160040 15 0 1.6 9.7 0.00 0.00 0.00 79 1008.8
20260506155527 15 0 0.0 14.5 0.00 0.00 0.00 79 1008.9
20260506155026 15 155 3.2 14.5 0.00 0.00 0.00 79 1008.8
20260506154541 15 0 1.6 11.3 0.00 0.00 0.00 79 1008.9
20260506154023 15 0 0.0 11.3 0.00 0.00 0.00 79 1009.0
20260506153526 15 0 0.0 8.0 0.00 0.00 0.00 80 1009.2
20260506153040 15 0 0.0 8.0 0.00 0.00 0.00 79 1009.1
20260506152525 15 0 0.0 11.3 0.00 0.00 0.00 78 1009.2
20260506152028 15 0 0.0 11.3 0.00 0.00 0.00 78 1008.9
20260506151544 15 130 0.0 9.7 0.00 0.00 0.00 79 1008.9
20260506151025 15 134 0.0 6.4 0.00 0.00 0.00 78 1008.9
20260506150525 15 0 1.6 6.4 0.00 0.00 0.00 78 1008.9
20260506150038 15 0 0.0 6.4 0.00 0.00 0.00 78 1008.8
20260506145526 15 145 0.0 6.4 0.00 0.00 0.00 78 1008.8
20260506145026 15 138 0.0 6.4 0.00 0.00 0.00 77 1008.7
20260506144548 15 0 1.6 6.4 0.00 0.00 0.00 78 1008.5
20260506144028 15 0 0.0 6.4 0.00 0.00 0.00 77 1008.4
20260506143526 15 0 0.0 8.0 0.00 0.00 0.00 77 1008.3
20260506143042 15 0 0.0 8.0 0.00 0.00 0.00 77 1008.5
20260506142525 15 0 0.0 12.9 0.00 0.00 0.00 77 1008.5
20260506142029 15 0 0.0 12.9 0.00 0.00 0.00 78 1008.6
20260506141539 15 131 3.2 11.3 0.00 0.00 0.00 78 1008.8
20260506141029 15 196 0.0 6.4 0.00 0.00 0.00 78 1009.1
20260506140530 15 0 0.0 12.9 0.00 0.00 0.00 78 1009.1
20260506140044 15 136 0.0 12.9 0.00 0.00 0.00 77 1009.3
20260506135525 15 149 1.6 12.9 0.00 0.00 0.00 77 1009.3
20260506135026 15 0 0.0 1.6 0.00 0.00 0.00 78 1009.2
20260506134539 15 0 0.0 1.6 0.00 0.00 0.00 79 1009.2
20260506134026 15 0 0.0 0.0 0.00 0.00 0.00 78 1009.2
20260506133528 15 0 0.0 6.4 0.00 0.00 0.00 79 1009.2
20260506133045 15 0 0.0 6.4 0.00 0.00 0.00 79 1009.1
20260506132526 15 0 0.0 6.4 0.00 0.00 0.00 79 1008.9
20260506132030 15 0 0.0 4.8 0.00 0.00 0.00 79 1009.0
20260506131536 15 0 0.0 1.6 0.00 0.00 0.00 79 1009.0
20260506131026 14 0 0.0 1.6 0.00 0.00 0.00 79 1008.8
20260506130526 14 0 0.0 4.8 0.00 0.00 0.00 79 1008.9
20260506130032 14 0 0.0 4.8 0.00 0.00 0.00 79 1009.0
20260506125525 14 0 0.0 1.6 0.00 0.00 0.00 80 1008.9
20260506125025 13 0 0.0 8.0 0.00 0.00 0.00 80 1009.0
20260506124541 13 0 0.0 8.0 0.00 0.00 0.00 81 1009.0
20260506124025 13 0 0.0 4.8 0.00 0.00 0.00 83 1009.2
20260506123526 13 0 0.0 4.8 0.00 0.00 0.00 82 1009.3
20260506123039 12 0 0.0 4.8 0.00 0.00 0.00 82 1009.2
20260506122526 12 0 0.0 0.0 0.00 0.00 0.00 84 1009.4
20260506122026 12 0 0.0 0.0 0.00 0.00 0.00 83 1009.4
20260506121539 12 0 0.0 0.0 0.00 0.00 0.00 84 1009.4
20260506121026 12 0 0.0 0.0 0.00 0.00 0.00 83 1009.7
20260506120526 12 0 0.0 0.0 0.00 0.00 0.00 84 1009.5
20260506120042 12 0 0.0 0.0 0.00 0.00 0.00 84 1009.5
20260506115526 12 0 0.0 0.0 0.00 0.00 0.00 84 1009.6
20260506115026 11 0 0.0 0.0 0.00 0.00 0.00 85 1009.6
20260506114535 11 0 0.0 0.0 0.00 0.00 0.00 84 1009.8
20260506114025 11 0 0.0 0.0 0.00 0.00 0.00 85 1009.8
20260506113526 11 0 0.0 0.0 0.00 0.00 0.00 85 1010.1
20260506113041 11 0 0.0 0.0 0.00 0.00 0.00 85 1009.9
20260506112529 11 0 0.0 0.0 0.00 0.00 0.00 85 1009.8
20260506112025 11 0 0.0 0.0 0.00 0.00 0.00 85 1010.1
20260506111539 11 0 0.0 0.0 0.00 0.00 0.00 86 1010.2
20260506111025 11 0 0.0 0.0 0.00 0.00 0.00 86 1010.1
20260506110526 11 0 0.0 0.0 0.00 0.00 0.00 86 1010.0
20260506110038 11 0 0.0 0.0 0.00 0.00 0.00 86 1010.1
20260506105526 11 0 0.0 0.0 0.00 0.00 0.00 86 1009.9
20260506105023 11 0 0.0 0.0 0.00 0.00 0.00 86 1009.9
20260506104539 11 0 0.0 0.0 0.00 0.00 0.00 86 1009.9
20260506104026 11 0 0.0 0.0 0.00 0.00 0.00 86 1010.0
20260506103526 11 0 0.0 0.0 0.00 0.00 0.00 86 1009.7
20260506103046 10 0 0.0 0.0 0.00 0.00 0.00 87 1009.7
20260506102526 10 0 0.0 0.0 0.00 0.00 0.00 87 1009.5
20260506102025 10 0 0.0 0.0 0.00 0.00 0.00 87 1009.5
20260506101542 10 0 0.0 0.0 0.00 0.00 0.00 87 1009.5
20260506101029 10 0 0.0 0.0 0.00 0.00 0.00 88 1009.5
20260506100529 10 0 0.0 0.0 0.00 0.00 0.00 88 1009.5
20260506100039 10 0 0.0 0.0 0.00 0.00 0.00 87 1009.5
20260506095525 10 0 0.0 0.0 0.00 0.00 0.00 87 1009.7
20260506095026 10 0 0.0 0.0 0.00 0.00 0.00 87 1009.7
20260506094540 10 0 0.0 0.0 0.00 0.00 0.00 87 1009.6
20260506094026 10 0 0.0 0.0 0.00 0.00 0.00 87 1009.6
20260506093526 10 0 0.0 0.0 0.00 0.00 0.00 87 1009.7
20260506093038 10 0 0.0 0.0 0.00 0.00 0.00 87 1009.7
20260506092526 10 0 0.0 0.0 0.00 0.00 0.00 87 1009.7
20260506092026 10 0 0.0 0.0 0.00 0.00 0.00 87 1009.6
20260506091537 10 0 0.0 0.0 0.00 0.00 0.00 86 1009.5
20260506091026 10 0 0.0 0.0 0.00 0.00 0.00 86 1009.5
20260506090525 10 0 0.0 0.0 0.00 0.00 0.00 86 1009.4
20260506090045 11 0 0.0 0.0 0.00 0.00 0.00 85 1009.3